weather.gov     
National Weather Service

Terminal Aerodrome Forecast
NWS Homepage
This page is being discontinued on March 12, 2014.
The same data is available at this site. Please update your bookmarks.
Thank you, and we apologize for the inconvenience.
Please send an email to SR-SRH.Webmaster@noaa.gov with any concerns.


Current Version
Previous Version:    01  02  03  04  05  06  07  08  09  10  11  12  13  14  15  16  17  18  19  20  21  22  23  24  25  26  27  28  29  30  
   31  32  33  34  35  
[Printable]
192
FTUS41 KALY 261700
TAFGFL
TAF
KGFL 261731Z 2618/2718 36009KT P6SM OVC080
     FM262300 01008KT P6SM VCSH OVC035
     FM270300 04007KT 4SM -SN BR SCT020 OVC030
     FM270800 36008KT 1SM -SN BR OVC015
     FM271100 36009KT 3/4SM -SN BR OVC008
     FM271400 36010KT 1/2SM SN FZFG VV003=


U.S. Dept. of Commerce
NOAA National Weather Service
1325 East West Highway
Silver Spring, MD 20910
E-mail: w-nws.webmaster@noaa.gov
Page last modified: May 16, 2007
NATIONAL WEATHER SERVICE: for Safety, for Work, for Fun - FOR LIFE